STARLINK-4017 (52682 NORAD) Tracking and Keplerian Element Data
This shows tracking and keplerian element data for the satellite.
Feedback or suggestion? Click here.
Element | Value |
Catalog | 52682 |
Name | STARLINK-4017 |
Epoch Orbit | 130 |
Epoch Day | 192.91667824 |
Epoch Year | 2022 |
RAAN | 28.7387 |
Inclination | 53.2174 |
Eccentricity | 0.0001869 |
Argument of Perigee | 34.0717 |
Mean Anonmoly | 87.4084 |
Mean Motion | 15.53804804 |
Decay Rate | -0.0105949 |
L1 | 1 52682U 22053AC 22192.91667824 -.01059490 00000+0 -17840-1 0 9994 |
L2 | 2 52682 53.2174 28.7387 0001869 34.0717 87.4084 15.53804804 1301 |
Live tracking and technical data element details for STARLINK-4017 (NORAD 52682). STARLINK-4017 can be tracked NOW for your location showing map with azimuth and elevation plus other details from your city location.
Track the satellite on the map from your city or location and see movement details for azimuth, elevation, latitude, longitude, range, height, and movement on the map or in text.
IsCatalogInMostPopularTable: catalog: 52682, numindb: 6
Update: records affected: 1
GetName: 52682 STARLINK-4017
Hit Count: updated at: Sun, 14 Aug 2022 00:19:51 GMT